CZ-4 DEB, 26129

Orbit data source: Space-Track

CZ-4 DEB, 26129 is space debris in SSO originally from a launch on Thu, 14 Oct 1999 UTC launched from the Taiyaun Space Center, China (TSC). Debris objects in space refer to the collection of defunct objects orbiting the Earth. Examples of debris include non-operational satellites, rocket bodies, and fragments generated from explosions, collisions, or faulty payload assembly.

Loading next visibility...
Identifier
26129, 1999-057R
Orbit
SSO
Country
Flag of CNCN / PRC
Related business
Manufacturer
Unknown
Mission
Spacecraft
Bus & Motor
Unknown
Mass
Unknown
Launch date (UTC)
1999-10-14 (26 years ago)
Launch vehicle
Unknown
Launch site
Taiyaun Space Center, China (TSC)
Object type
Payload
Rocket body
Debris
Shape & HBR
Unknown shape, 0.1 m
Radar Cross Section
Medium (>0.1 m² and <1 m²)

Expand to show TLE details & history
Last TLE update: 16 hours ago

TLE from 16 hours ago
0 CZ-4 DEB
1 26129U 99057R   26036.98353342  .00002066  00000-0  14616-2 0  9998
2 26129  99.0061 232.0860 0437380 132.0216 231.9036 13.61069742280382
Epoch: 2026-02-05T23:36Z
TLE epoch observation values (Epoch: 2026-02-05T23:36:17.287Z)
Latitude
-0.00012°
Longitude
101.88606°
Altitude
1,243.076 km
Speed
7.131 km/s
True Right ascension
15h 28m 20s
True Declination
0° 00' 00"
Sunlit
Object was in daylight at epoch
Visualization orbit readout
Latitude
Unknown
Longitude
Unknown
Altitude
Unknown
Speed
Unknown
Apparent Right ascension
Unknown
Apparent Declination
Unknown
Sunlit
N/A
Visualization observer readout
Local Sidereal Time
17:43:25
Azimuth
Unknown
Elevation
Unknown
Doppler factor
Unknown
Orbital elements
Apogee altitude
1,353.027 km
Perigee altitude
705.075 km
Semi-major axis
7,407.188 km
Eccentricity
0.04374
Inclination
99.0061°
RAAN
232.086°
Arg. of periapsis
132.0216°
True anomaly
228.09095°
Mean anomaly
231.9036°
Eccentric anomaly
229.98433°
Mean motion
3.40458 °/min
Orbital period
105.74 mins
BSTAR
0.0014616
Loading maneuver chart data...
Computing Atmospheric mass density...
Loading historical data...
Loading historical data...
Loading historical data...
Loading historical data...
Loading historical data...
Loading historical data...
Loading historical data...

Documentation

Showing up to 5 results
|